N35LF EDML-EDMA

Flight info

Callsign N35LF
Flight time 0h 28m
Altitude 5000
Route VFR DCT ANKER/N0160A050 IFR T105 MIQ Z98 WLD DCT
Aircraft BE35/L-BDFGLORY/S

Departure

Time 2026-04-15 14:28
Airport Landshut Airfield (EDML)

Arrival

Time 2026-04-15 14:56
Airport Augsburg Airport (EDMA)
Time Latitude Longitude Altitude Speed Heading
2026-04-15 14:22 48.51035 12.02770 1319 ft 0 kts 163°
2026-04-15 14:26 48.51032 12.02772 1319 ft 1 kts 161°
2026-04-15 14:26 48.51007 12.02795 1319 ft 4 kts 115°
2026-04-15 14:27 48.51029 12.02884 1319 ft 27 kts 64°
2026-04-15 14:27 48.51184 12.03416 1340 ft 73 kts 66°
2026-04-15 14:27 48.51329 12.04197 1522 ft 83 kts 82°
2026-04-15 14:27 48.51389 12.05134 1729 ft 93 kts 83°
2026-04-15 14:28 48.51503 12.06091 1990 ft 93 kts 66°
2026-04-15 14:28 48.51911 12.06865 2184 ft 99 kts 37°
2026-04-15 14:28 48.52552 12.07364 2357 ft 108 kts 18°
2026-04-15 14:28 48.53319 12.07413 2578 ft 114 kts 349°
2026-04-15 14:29 48.54093 12.07062 2787 ft 117 kts 342°
2026-04-15 14:29 48.54843 12.06554 2990 ft 119 kts 332°
2026-04-15 14:29 48.55572 12.05948 3189 ft 121 kts 333°
2026-04-15 14:29 48.56216 12.05096 3395 ft 124 kts 316°
2026-04-15 14:30 48.56827 12.04167 3592 ft 125 kts 316°
2026-04-15 14:30 48.57440 12.03242 3787 ft 125 kts 316°
2026-04-15 14:30 48.58012 12.02231 3928 ft 131 kts 306°
2026-04-15 14:30 48.58241 12.00851 3959 ft 144 kts 266°
2026-04-15 14:31 48.58160 11.99288 3950 ft 155 kts 265°
2026-04-15 14:31 48.58075 11.97626 3950 ft 161 kts 265°
2026-04-15 14:31 48.58001 11.95923 3953 ft 167 kts 266°
2026-04-15 14:31 48.57943 11.94125 3964 ft 173 kts 266°
2026-04-15 14:32 48.57889 11.92311 3958 ft 177 kts 267°
2026-04-15 14:32 48.57832 11.90455 4056 ft 174 kts 266°
2026-04-15 14:32 48.57786 11.88653 4222 ft 168 kts 266°
2026-04-15 14:32 48.57732 11.86918 4389 ft 163 kts 266°
2026-04-15 14:33 48.57688 11.85249 4556 ft 159 kts 266°
2026-04-15 14:33 48.57637 11.83598 4727 ft 156 kts 266°
2026-04-15 14:33 48.57592 11.81979 4896 ft 154 kts 266°
2026-04-15 14:33 48.57544 11.80330 4952 ft 160 kts 266°
2026-04-15 14:34 48.57497 11.78632 4959 ft 167 kts 266°
2026-04-15 14:34 48.57455 11.76893 4956 ft 166 kts 266°
2026-04-15 14:34 48.57397 11.75141 4955 ft 167 kts 266°
2026-04-15 14:34 48.57346 11.73383 4960 ft 167 kts 266°
2026-04-15 14:35 48.57296 11.71625 4962 ft 166 kts 266°
2026-04-15 14:35 48.57243 11.69899 4965 ft 166 kts 266°
2026-04-15 14:35 48.57192 11.68162 4963 ft 167 kts 266°
2026-04-15 14:35 48.57138 11.66406 4960 ft 167 kts 266°
2026-04-15 14:36 48.57087 11.64646 4963 ft 167 kts 266°
2026-04-15 14:36 48.57034 11.62908 4960 ft 167 kts 265°
2026-04-15 14:36 48.56984 11.61153 4958 ft 166 kts 265°
2026-04-15 14:36 48.56939 11.59412 4961 ft 166 kts 269°
2026-04-15 14:37 48.56984 11.57669 4965 ft 166 kts 271°
2026-04-15 14:37 48.57016 11.55944 4968 ft 166 kts 271°
2026-04-15 14:37 48.57056 11.54196 4967 ft 166 kts 270°
2026-04-15 14:37 48.57094 11.52464 4965 ft 166 kts 271°
2026-04-15 14:38 48.57126 11.50706 4963 ft 166 kts 271°
2026-04-15 14:38 48.57175 11.48987 4966 ft 166 kts 271°
2026-04-15 14:38 48.57203 11.47244 4964 ft 166 kts 270°
2026-04-15 14:38 48.57238 11.45496 4960 ft 167 kts 271°
2026-04-15 14:39 48.57270 11.43739 4960 ft 167 kts 270°
2026-04-15 14:39 48.57317 11.41990 4961 ft 167 kts 271°
2026-04-15 14:39 48.57348 11.40250 4957 ft 167 kts 271°
2026-04-15 14:39 48.57378 11.38481 4961 ft 167 kts 271°
2026-04-15 14:40 48.57413 11.36746 4963 ft 167 kts 271°
2026-04-15 14:40 48.57452 11.34988 4962 ft 167 kts 270°
2026-04-15 14:40 48.57487 11.33227 4959 ft 167 kts 270°
2026-04-15 14:40 48.57520 11.31477 4957 ft 166 kts 270°
2026-04-15 14:41 48.57551 11.29716 4958 ft 166 kts 270°
2026-04-15 14:41 48.57585 11.27978 4959 ft 166 kts 270°
2026-04-15 14:41 48.57618 11.26240 4958 ft 166 kts 270°
2026-04-15 14:41 48.57650 11.24520 4959 ft 166 kts 270°
2026-04-15 14:42 48.57684 11.22768 4958 ft 166 kts 270°
2026-04-15 14:42 48.57716 11.21043 4959 ft 166 kts 270°
2026-04-15 14:42 48.57748 11.19285 4959 ft 166 kts 270°
2026-04-15 14:42 48.57761 11.17544 4960 ft 166 kts 265°
2026-04-15 14:43 48.57681 11.15824 4960 ft 166 kts 264°
2026-04-15 14:43 48.57608 11.14075 4960 ft 166 kts 264°
2026-04-15 14:43 48.57527 11.12336 4960 ft 166 kts 264°
2026-04-15 14:43 48.57631 11.10609 4958 ft 166 kts 281°
2026-04-15 14:44 48.57836 11.08903 4960 ft 166 kts 278°
2026-04-15 14:44 48.58045 11.07181 4959 ft 167 kts 280°
2026-04-15 14:44 48.58275 11.05477 4958 ft 167 kts 283°
2026-04-15 14:44 48.58706 11.03874 4942 ft 167 kts 309°
2026-04-15 14:45 48.59715 11.03139 4942 ft 163 kts 359°
2026-04-15 14:45 48.60729 11.03706 4945 ft 156 kts 44°
2026-04-15 14:45 48.61243 11.05104 4984 ft 151 kts 71°
2026-04-15 14:45 48.61628 11.06587 4935 ft 155 kts 69°
2026-04-15 14:46 48.61752 11.08202 4808 ft 160 kts 105°
2026-04-15 14:46 48.61032 11.09443 4695 ft 165 kts 147°
2026-04-15 14:46 48.60045 11.10348 4600 ft 165 kts 144°
2026-04-15 14:46 48.59074 11.11277 4499 ft 165 kts 146°
2026-04-15 14:47 48.58095 11.12178 4399 ft 165 kts 146°
2026-04-15 14:47 48.57116 11.13075 4298 ft 165 kts 146°
2026-04-15 14:47 48.56138 11.13969 4199 ft 164 kts 146°
2026-04-15 14:47 48.55098 11.14689 4077 ft 167 kts 169°
2026-04-15 14:48 48.53942 11.14559 3979 ft 165 kts 176°
2026-04-15 14:48 48.52830 11.14763 3957 ft 157 kts 170°
2026-04-15 14:48 48.51779 11.14983 3954 ft 151 kts 167°
2026-04-15 14:48 48.50751 11.15264 3953 ft 146 kts 166°
2026-04-15 14:49 48.49770 11.15547 3953 ft 143 kts 165°
2026-04-15 14:49 48.48804 11.15834 3955 ft 140 kts 166°
2026-04-15 14:49 48.47867 11.15573 3942 ft 140 kts 212°
2026-04-15 14:49 48.47306 11.14430 3942 ft 134 kts 241°
2026-04-15 14:50 48.46925 11.13121 3816 ft 138 kts 248°
2026-04-15 14:50 48.46605 11.11736 3694 ft 141 kts 250°
2026-04-15 14:50 48.46291 11.10312 3571 ft 144 kts 251°
2026-04-15 14:50 48.45977 11.08876 3475 ft 144 kts 251°
2026-04-15 14:51 48.45673 11.07490 3455 ft 138 kts 251°
2026-04-15 14:51 48.45376 11.06135 3429 ft 132 kts 251°
2026-04-15 14:51 48.45097 11.04872 3240 ft 123 kts 250°
2026-04-15 14:51 48.44833 11.03680 3054 ft 117 kts 250°
2026-04-15 14:52 48.44564 11.02539 2863 ft 115 kts 249°
2026-04-15 14:52 48.44289 11.01434 2672 ft 113 kts 248°
2026-04-15 14:52 48.44009 11.00343 2484 ft 111 kts 252°
2026-04-15 14:52 48.43836 10.99221 2288 ft 110 kts 255°
2026-04-15 14:53 48.43624 10.98201 2171 ft 96 kts 252°
2026-04-15 14:53 48.43440 10.97259 2070 ft 88 kts 261°
2026-04-15 14:53 48.43402 10.96378 2064 ft 80 kts 268°
2026-04-15 14:53 48.43359 10.95554 2026 ft 78 kts 264°
2026-04-15 14:54 48.43265 10.94698 2027 ft 85 kts 259°
2026-04-15 14:54 48.43186 10.93791 2051 ft 88 kts 266°
2026-04-15 14:54 48.43155 10.92859 2070 ft 88 kts 268°
2026-04-15 14:54 48.43129 10.91924 2074 ft 89 kts 268°
2026-04-15 14:55 48.43106 10.91001 2103 ft 88 kts 264°
2026-04-15 14:55 48.42783 10.90266 2098 ft 91 kts 202°
2026-04-15 14:55 48.42186 10.90378 1967 ft 91 kts 133°
2026-04-15 14:55 48.42079 10.91212 1752 ft 82 kts 70°
2026-04-15 14:56 48.42254 10.91988 1581 ft 77 kts 66°
2026-04-15 14:56 48.42414 10.92689 1510 ft 57 kts 70°
2026-04-15 14:56 48.42513 10.93141 1512 ft 26 kts 75°
2026-04-15 14:56 48.42552 10.93303 1512 ft 17 kts 70°
2026-04-15 14:57 48.42596 10.93493 1511 ft 15 kts 72°
2026-04-15 14:57 48.42605 10.93599 1511 ft 9 kts 119°
2026-04-15 14:57 48.42555 10.93621 1512 ft 7 kts 223°
2026-04-15 14:57 48.42541 10.93561 1512 ft 5 kts 248°
2026-04-15 14:58 48.42522 10.93482 1512 ft 10 kts 252°
2026-04-15 14:58 48.42499 10.93380 1513 ft 9 kts 252°
2026-04-15 14:58 48.42477 10.93291 1513 ft 8 kts 251°
2026-04-15 14:58 48.42461 10.93213 1513 ft 6 kts 253°
2026-04-15 14:59 48.42448 10.93156 1513 ft 6 kts 252°
2026-04-15 14:59 48.42427 10.93055 1511 ft 11 kts 252°
2026-04-15 14:59 48.42403 10.92956 1511 ft 6 kts 250°
2026-04-15 14:59 48.42393 10.92910 1511 ft 4 kts 252°
2026-04-15 15:00 48.42381 10.92857 1510 ft 5 kts 251°
2026-04-15 15:00 48.42369 10.92804 1509 ft 4 kts 252°
2026-04-15 15:00 48.42361 10.92765 1510 ft 4 kts 251°
2026-04-15 15:00 48.42346 10.92697 1509 ft 9 kts 251°
2026-04-15 15:01 48.42327 10.92609 1509 ft 6 kts 252°
2026-04-15 15:01 48.42316 10.92558 1509 ft 6 kts 253°
2026-04-15 15:01 48.42302 10.92492 1509 ft 4 kts 251°
2026-04-15 15:01 48.42287 10.92431 1509 ft 5 kts 250°
2026-04-15 15:02 48.42263 10.92405 1509 ft 6 kts 165°
2026-04-15 15:02 48.42216 10.92428 1509 ft 6 kts 161°
2026-04-15 15:02 48.42206 10.92433 1510 ft 0 kts 163°